owner,sensor,date,latitude,longitude,air_temperature,qcFlag 
COMPS,ioos:station:USF.COMPS:C13:1,2019-06-01T00:35:00,26.0630,-83.0730,27.88,11111222 
COMPS,ioos:station:USF.COMPS:C13:1,2019-06-01T01:35:00,26.0630,-83.0730,27.83,11111222 
COMPS,ioos:station:USF.COMPS:C13:1,2019-06-01T02:35:00,26.0630,-83.0730,27.78,11111222 
COMPS,ioos:station:USF.COMPS:C13:1,2019-06-01T03:35:00,26.0630,-83.0730,27.8,11111222 
COMPS,ioos:station:USF.COMPS:C13:1,2019-06-01T04:35:00,26.0630,-83.0730,27.73,11111222 
COMPS,ioos:station:USF.COMPS:C13:1,2019-06-01T05:35:00,26.0630,-83.0730,27.56,11111222 
COMPS,ioos:station:USF.COMPS:C13:1,2019-06-01T06:35:00,26.0630,-83.0730,27.47,11111222 
COMPS,ioos:station:USF.COMPS:C13:1,2019-06-01T07:35:00,26.0630,-83.0730,27.39,11111222 
COMPS,ioos:station:USF.COMPS:C13:1,2019-06-01T08:35:00,26.0630,-83.0730,27.34,11111222 
COMPS,ioos:station:USF.COMPS:C13:1,2019-06-01T09:35:00,26.0630,-83.0730,27.35,11111222 
COMPS,ioos:station:USF.COMPS:C13:1,2019-06-01T10:35:00,26.0630,-83.0730,27.38,11111222 
COMPS,ioos:station:USF.COMPS:C13:1,2019-06-01T11:35:00,26.0630,-83.0730,27.32,11111222 
COMPS,ioos:station:USF.COMPS:C13:1,2019-06-01T12:35:00,26.0630,-83.0730,27.49,11111222 
COMPS,ioos:station:USF.COMPS:C13:1,2019-06-01T13:35:00,26.0630,-83.0730,27.54,11111222 
COMPS,ioos:station:USF.COMPS:C13:1,2019-06-01T14:35:00,26.0630,-83.0730,27.55,11111222 
COMPS,ioos:station:USF.COMPS:C13:1,2019-06-01T15:35:00,26.0630,-83.0730,27.87,11111222 
COMPS,ioos:station:USF.COMPS:C13:1,2019-06-01T16:35:00,26.0630,-83.0730,28.6,11111222 
COMPS,ioos:station:USF.COMPS:C13:1,2019-06-01T17:35:00,26.0630,-83.0730,28.33,11111222 
COMPS,ioos:station:USF.COMPS:C13:1,2019-06-01T18:35:00,26.0630,-83.0730,28.57,11111222 
COMPS,ioos:station:USF.COMPS:C13:1,2019-06-01T19:35:00,26.0630,-83.0730,28.32,11111222 
COMPS,ioos:station:USF.COMPS:C13:1,2019-06-01T20:35:00,26.0630,-83.0730,28.62,11111222 
COMPS,ioos:station:USF.COMPS:C13:1,2019-06-01T21:35:00,26.0630,-83.0730,28.92,11111222 
COMPS,ioos:station:USF.COMPS:C13:1,2019-06-01T22:35:00,26.0630,-83.0730,28.92,11111222 
COMPS,ioos:station:USF.COMPS:C13:1,2019-06-01T23:35:00,26.0630,-83.0730,29.02,11111222 
COMPS,ioos:station:USF.COMPS:C13:1,2019-06-02T00:35:00,26.0630,-83.0730,28.22,11111222 
COMPS,ioos:station:USF.COMPS:C13:1,2019-06-02T01:35:00,26.0630,-83.0730,28.19,11111222 
COMPS,ioos:station:USF.COMPS:C13:1,2019-06-02T02:35:00,26.0630,-83.0730,28.02,11111222 
COMPS,ioos:station:USF.COMPS:C13:1,2019-06-02T03:35:00,26.0630,-83.0730,27.92,11111222 
COMPS,ioos:station:USF.COMPS:C13:1,2019-06-02T04:35:00,26.0630,-83.0730,27.89,11111222 
COMPS,ioos:station:USF.COMPS:C13:1,2019-06-02T05:35:00,26.0630,-83.0730,27.77,11111222 
COMPS,ioos:station:USF.COMPS:C13:1,2019-06-02T06:35:00,26.0630,-83.0730,27.81,11111222 
COMPS,ioos:station:USF.COMPS:C13:1,2019-06-02T07:35:00,26.0630,-83.0730,27.74,11111222 
COMPS,ioos:station:USF.COMPS:C13:1,2019-06-02T08:35:00,26.0630,-83.0730,27.56,11111222 
COMPS,ioos:station:USF.COMPS:C13:1,2019-06-02T09:35:00,26.0630,-83.0730,27.59,11111222 
COMPS,ioos:station:USF.COMPS:C13:1,2019-06-02T10:35:00,26.0630,-83.0730,27.53,11111222 
COMPS,ioos:station:USF.COMPS:C13:1,2019-06-02T11:35:00,26.0630,-83.0730,27.66,11111222 
COMPS,ioos:station:USF.COMPS:C13:1,2019-06-02T12:35:00,26.0630,-83.0730,27.88,11111222 
COMPS,ioos:station:USF.COMPS:C13:1,2019-06-02T13:35:00,26.0630,-83.0730,27.88,11111222 
COMPS,ioos:station:USF.COMPS:C13:1,2019-06-02T14:35:00,26.0630,-83.0730,27.81,11111222 
COMPS,ioos:station:USF.COMPS:C13:1,2019-06-02T15:35:00,26.0630,-83.0730,28.31,11111222 
COMPS,ioos:station:USF.COMPS:C13:1,2019-06-02T16:35:00,26.0630,-83.0730,28.69,11111222 
COMPS,ioos:station:USF.COMPS:C13:1,2019-06-02T17:35:00,26.0630,-83.0730,28.73,11111222 
COMPS,ioos:station:USF.COMPS:C13:1,2019-06-02T18:35:00,26.0630,-83.0730,29.07,11111222 
COMPS,ioos:station:USF.COMPS:C13:1,2019-06-02T19:35:00,26.0630,-83.0730,29.1,11111222 
COMPS,ioos:station:USF.COMPS:C13:1,2019-06-02T20:35:00,26.0630,-83.0730,28.78,11111222 
COMPS,ioos:station:USF.COMPS:C13:1,2019-06-02T21:35:00,26.0630,-83.0730,29.06,11111222 
COMPS,ioos:station:USF.COMPS:C13:1,2019-06-02T22:35:00,26.0630,-83.0730,29.37,11111222 
COMPS,ioos:station:USF.COMPS:C13:1,2019-06-02T23:35:00,26.0630,-83.0730,29.59,11111222 
COMPS,ioos:station:USF.COMPS:C13:1,2019-06-03T00:35:00,26.0630,-83.0730,28.67,11111222 
COMPS,ioos:station:USF.COMPS:C13:1,2019-06-03T01:35:00,26.0630,-83.0730,28.46,11111222 
COMPS,ioos:station:USF.COMPS:C13:1,2019-06-03T02:35:00,26.0630,-83.0730,28.38,11111222 
COMPS,ioos:station:USF.COMPS:C13:1,2019-06-03T03:35:00,26.0630,-83.0730,28.31,11111222 
COMPS,ioos:station:USF.COMPS:C13:1,2019-06-03T04:35:00,26.0630,-83.0730,28.31,11111222 
COMPS,ioos:station:USF.COMPS:C13:1,2019-06-03T05:35:00,26.0630,-83.0730,28.19,11111222 
COMPS,ioos:station:USF.COMPS:C13:1,2019-06-03T06:35:00,26.0630,-83.0730,28.11,11111222 
COMPS,ioos:station:USF.COMPS:C13:1,2019-06-03T07:35:00,26.0630,-83.0730,27.86,11111222 
COMPS,ioos:station:USF.COMPS:C13:1,2019-06-03T08:35:00,26.0630,-83.0730,27.84,11111222 
COMPS,ioos:station:USF.COMPS:C13:1,2019-06-03T09:35:00,26.0630,-83.0730,27.85,11111222 
COMPS,ioos:station:USF.COMPS:C13:1,2019-06-03T10:35:00,26.0630,-83.0730,27.94,11111222 
COMPS,ioos:station:USF.COMPS:C13:1,2019-06-03T11:35:00,26.0630,-83.0730,28.0,11111222 
COMPS,ioos:station:USF.COMPS:C13:1,2019-06-03T12:35:00,26.0630,-83.0730,28.19,11111222 
COMPS,ioos:station:USF.COMPS:C13:1,2019-06-03T13:35:00,26.0630,-83.0730,28.25,11111222 
COMPS,ioos:station:USF.COMPS:C13:1,2019-06-03T14:35:00,26.0630,-83.0730,28.75,11111222 
COMPS,ioos:station:USF.COMPS:C13:1,2019-06-03T15:35:00,26.0630,-83.0730,28.67,11111222 
COMPS,ioos:station:USF.COMPS:C13:1,2019-06-03T16:35:00,26.0630,-83.0730,28.99,11111222 
COMPS,ioos:station:USF.COMPS:C13:1,2019-06-03T17:35:00,26.0630,-83.0730,29.56,11111222 
COMPS,ioos:station:USF.COMPS:C13:1,2019-06-03T18:35:00,26.0630,-83.0730,29.27,11111222 
COMPS,ioos:station:USF.COMPS:C13:1,2019-06-03T19:35:00,26.0630,-83.0730,29.48,11111222 
COMPS,ioos:station:USF.COMPS:C13:1,2019-06-03T20:35:00,26.0630,-83.0730,29.22,11111222 
COMPS,ioos:station:USF.COMPS:C13:1,2019-06-03T21:35:00,26.0630,-83.0730,29.65,11111222 
COMPS,ioos:station:USF.COMPS:C13:1,2019-06-03T22:35:00,26.0630,-83.0730,29.53,11111222 
COMPS,ioos:station:USF.COMPS:C13:1,2019-06-03T23:35:00,26.0630,-83.0730,29.61,11111222 
COMPS,ioos:station:USF.COMPS:C13:1,2019-06-04T00:35:00,26.0630,-83.0730,29.24,11111222 
COMPS,ioos:station:USF.COMPS:C13:1,2019-06-04T01:35:00,26.0630,-83.0730,29.23,11111222 
COMPS,ioos:station:USF.COMPS:C13:1,2019-06-04T02:35:00,26.0630,-83.0730,29.09,11111222 
COMPS,ioos:station:USF.COMPS:C13:1,2019-06-04T03:35:00,26.0630,-83.0730,29.04,11111222 
COMPS,ioos:station:USF.COMPS:C13:1,2019-06-04T04:35:00,26.0630,-83.0730,28.8,11111222 
COMPS,ioos:station:USF.COMPS:C13:1,2019-06-04T05:35:00,26.0630,-83.0730,28.65,11111222 
COMPS,ioos:station:USF.COMPS:C13:1,2019-06-04T06:35:00,26.0630,-83.0730,28.63,11111222 
COMPS,ioos:station:USF.COMPS:C13:1,2019-06-04T07:35:00,26.0630,-83.0730,28.41,11111222 
COMPS,ioos:station:USF.COMPS:C13:1,2019-06-04T08:35:00,26.0630,-83.0730,28.32,11111222 
COMPS,ioos:station:USF.COMPS:C13:1,2019-06-04T09:35:00,26.0630,-83.0730,28.36,11111222 
COMPS,ioos:station:USF.COMPS:C13:1,2019-06-04T10:35:00,26.0630,-83.0730,28.3,11111222 
COMPS,ioos:station:USF.COMPS:C13:1,2019-06-04T11:35:00,26.0630,-83.0730,28.62,11111222 
COMPS,ioos:station:USF.COMPS:C13:1,2019-06-04T12:35:00,26.0630,-83.0730,28.83,11111222 
COMPS,ioos:station:USF.COMPS:C13:1,2019-06-04T13:35:00,26.0630,-83.0730,28.79,11111222 
COMPS,ioos:station:USF.COMPS:C13:1,2019-06-04T14:35:00,26.0630,-83.0730,28.62,11111222 
COMPS,ioos:station:USF.COMPS:C13:1,2019-06-04T15:35:00,26.0630,-83.0730,29.06,11111222 
COMPS,ioos:station:USF.COMPS:C13:1,2019-06-04T16:35:00,26.0630,-83.0730,29.12,11111222 
COMPS,ioos:station:USF.COMPS:C13:1,2019-06-04T17:35:00,26.0630,-83.0730,28.89,11111222 
COMPS,ioos:station:USF.COMPS:C13:1,2019-06-04T18:35:00,26.0630,-83.0730,28.98,11111222 
COMPS,ioos:station:USF.COMPS:C13:1,2019-06-04T19:35:00,26.0630,-83.0730,29.78,11111222 
COMPS,ioos:station:USF.COMPS:C13:1,2019-06-04T20:35:00,26.0630,-83.0730,29.64,11111222 
COMPS,ioos:station:USF.COMPS:C13:1,2019-06-04T21:35:00,26.0630,-83.0730,29.72,11111222 
COMPS,ioos:station:USF.COMPS:C13:1,2019-06-04T22:35:00,26.0630,-83.0730,29.53,11111222 
COMPS,ioos:station:USF.COMPS:C13:1,2019-06-04T23:35:00,26.0630,-83.0730,29.39,11111222 
COMPS,ioos:station:USF.COMPS:C13:1,2019-06-05T00:35:00,26.0630,-83.0730,29.15,11111222 
COMPS,ioos:station:USF.COMPS:C13:1,2019-06-05T01:35:00,26.0630,-83.0730,29.32,11111222 
COMPS,ioos:station:USF.COMPS:C13:1,2019-06-05T02:35:00,26.0630,-83.0730,29.22,11111222 
COMPS,ioos:station:USF.COMPS:C13:1,2019-06-05T03:35:00,26.0630,-83.0730,28.98,11111222 
COMPS,ioos:station:USF.COMPS:C13:1,2019-06-05T04:35:00,26.0630,-83.0730,28.81,11111222 
COMPS,ioos:station:USF.COMPS:C13:1,2019-06-05T05:35:00,26.0630,-83.0730,28.85,11111222 
COMPS,ioos:station:USF.COMPS:C13:1,2019-06-05T06:35:00,26.0630,-83.0730,28.59,11111222 
COMPS,ioos:station:USF.COMPS:C13:1,2019-06-05T07:35:00,26.0630,-83.0730,28.59,11111222 
COMPS,ioos:station:USF.COMPS:C13:1,2019-06-05T08:35:00,26.0630,-83.0730,28.55,11111222 
COMPS,ioos:station:USF.COMPS:C13:1,2019-06-05T09:35:00,26.0630,-83.0730,28.53,11111222 
COMPS,ioos:station:USF.COMPS:C13:1,2019-06-05T10:35:00,26.0630,-83.0730,28.47,11111222 
COMPS,ioos:station:USF.COMPS:C13:1,2019-06-05T11:35:00,26.0630,-83.0730,28.62,11111222 
COMPS,ioos:station:USF.COMPS:C13:1,2019-06-05T12:35:00,26.0630,-83.0730,28.85,11111222 
COMPS,ioos:station:USF.COMPS:C13:1,2019-06-05T13:35:00,26.0630,-83.0730,28.81,11111222 
COMPS,ioos:station:USF.COMPS:C13:1,2019-06-05T14:35:00,26.0630,-83.0730,28.97,11111222 
COMPS,ioos:station:USF.COMPS:C13:1,2019-06-05T15:35:00,26.0630,-83.0730,28.66,11111222 
COMPS,ioos:station:USF.COMPS:C13:1,2019-06-05T16:35:00,26.0630,-83.0730,28.94,11111222 
COMPS,ioos:station:USF.COMPS:C13:1,2019-06-05T17:35:00,26.0630,-83.0730,28.98,11111222 
COMPS,ioos:station:USF.COMPS:C13:1,2019-06-05T18:35:00,26.0630,-83.0730,29.07,11111222 
COMPS,ioos:station:USF.COMPS:C13:1,2019-06-05T19:35:00,26.0630,-83.0730,29.15,11111222 
COMPS,ioos:station:USF.COMPS:C13:1,2019-06-05T20:35:00,26.0630,-83.0730,29.04,11111222 
COMPS,ioos:station:USF.COMPS:C13:1,2019-06-05T21:35:00,26.0630,-83.0730,29.43,11111222 
COMPS,ioos:station:USF.COMPS:C13:1,2019-06-05T22:35:00,26.0630,-83.0730,29.3,11111222 
COMPS,ioos:station:USF.COMPS:C13:1,2019-06-05T23:35:00,26.0630,-83.0730,29.47,11111222 
COMPS,ioos:station:USF.COMPS:C13:1,2019-06-06T00:35:00,26.0630,-83.0730,28.97,11111222 
COMPS,ioos:station:USF.COMPS:C13:1,2019-06-06T01:35:00,26.0630,-83.0730,28.76,11111222 
COMPS,ioos:station:USF.COMPS:C13:1,2019-06-06T02:35:00,26.0630,-83.0730,28.72,11111222 
COMPS,ioos:station:USF.COMPS:C13:1,2019-06-06T03:35:00,26.0630,-83.0730,28.76,11111222 
COMPS,ioos:station:USF.COMPS:C13:1,2019-06-06T04:35:00,26.0630,-83.0730,28.66,11111222 
COMPS,ioos:station:USF.COMPS:C13:1,2019-06-06T05:35:00,26.0630,-83.0730,28.67,11111222 
COMPS,ioos:station:USF.COMPS:C13:1,2019-06-06T06:35:00,26.0630,-83.0730,28.58,11111222 
COMPS,ioos:station:USF.COMPS:C13:1,2019-06-06T07:35:00,26.0630,-83.0730,28.6,11111222 
COMPS,ioos:station:USF.COMPS:C13:1,2019-06-06T08:35:00,26.0630,-83.0730,28.43,11111222 
COMPS,ioos:station:USF.COMPS:C13:1,2019-06-06T09:35:00,26.0630,-83.0730,28.52,11111222 
COMPS,ioos:station:USF.COMPS:C13:1,2019-06-06T10:35:00,26.0630,-83.0730,28.62,11111222 
COMPS,ioos:station:USF.COMPS:C13:1,2019-06-06T11:35:00,26.0630,-83.0730,28.71,11111222 
COMPS,ioos:station:USF.COMPS:C13:1,2019-06-06T12:35:00,26.0630,-83.0730,28.86,11111222 
COMPS,ioos:station:USF.COMPS:C13:1,2019-06-06T13:35:00,26.0630,-83.0730,28.85,11111222 
COMPS,ioos:station:USF.COMPS:C13:1,2019-06-06T14:35:00,26.0630,-83.0730,28.6,11111222 
COMPS,ioos:station:USF.COMPS:C13:1,2019-06-06T15:35:00,26.0630,-83.0730,28.79,11111222 
COMPS,ioos:station:USF.COMPS:C13:1,2019-06-06T16:35:00,26.0630,-83.0730,28.82,11111222 
COMPS,ioos:station:USF.COMPS:C13:1,2019-06-06T17:35:00,26.0630,-83.0730,28.96,11111222 
COMPS,ioos:station:USF.COMPS:C13:1,2019-06-06T18:35:00,26.0630,-83.0730,28.8,11111222 
COMPS,ioos:station:USF.COMPS:C13:1,2019-06-06T19:35:00,26.0630,-83.0730,29.04,11111222 
COMPS,ioos:station:USF.COMPS:C13:1,2019-06-06T20:35:00,26.0630,-83.0730,28.99,11111222 
COMPS,ioos:station:USF.COMPS:C13:1,2019-06-06T21:35:00,26.0630,-83.0730,29.06,11111222 
COMPS,ioos:station:USF.COMPS:C13:1,2019-06-06T22:35:00,26.0630,-83.0730,28.94,11111222 
COMPS,ioos:station:USF.COMPS:C13:1,2019-06-06T23:35:00,26.0630,-83.0730,28.93,11111222 
COMPS,ioos:station:USF.COMPS:C13:1,2019-06-07T00:35:00,26.0630,-83.0730,28.72,11111222 
COMPS,ioos:station:USF.COMPS:C13:1,2019-06-07T01:35:00,26.0630,-83.0730,28.68,11111222 
COMPS,ioos:station:USF.COMPS:C13:1,2019-06-07T02:35:00,26.0630,-83.0730,28.9,11111222 
COMPS,ioos:station:USF.COMPS:C13:1,2019-06-07T03:35:00,26.0630,-83.0730,28.65,11111222 
COMPS,ioos:station:USF.COMPS:C13:1,2019-06-07T04:35:00,26.0630,-83.0730,28.52,11111222 
COMPS,ioos:station:USF.COMPS:C13:1,2019-06-07T05:35:00,26.0630,-83.0730,28.44,11111222 
COMPS,ioos:station:USF.COMPS:C13:1,2019-06-07T06:35:00,26.0630,-83.0730,28.34,11111222 
COMPS,ioos:station:USF.COMPS:C13:1,2019-06-07T07:35:00,26.0630,-83.0730,28.45,11111222 
COMPS,ioos:station:USF.COMPS:C13:1,2019-06-07T08:35:00,26.0630,-83.0730,28.35,11111222 
COMPS,ioos:station:USF.COMPS:C13:1,2019-06-07T09:35:00,26.0630,-83.0730,28.43,11111222 
COMPS,ioos:station:USF.COMPS:C13:1,2019-06-07T10:35:00,26.0630,-83.0730,28.45,11111222 
COMPS,ioos:station:USF.COMPS:C13:1,2019-06-07T11:35:00,26.0630,-83.0730,28.47,11111222 
COMPS,ioos:station:USF.COMPS:C13:1,2019-06-07T12:35:00,26.0630,-83.0730,28.55,11111222 
COMPS,ioos:station:USF.COMPS:C13:1,2019-06-07T13:35:00,26.0630,-83.0730,28.83,11111222 
COMPS,ioos:station:USF.COMPS:C13:1,2019-06-07T14:35:00,26.0630,-83.0730,28.79,11111222 
COMPS,ioos:station:USF.COMPS:C13:1,2019-06-07T15:35:00,26.0630,-83.0730,29.08,11111222 
COMPS,ioos:station:USF.COMPS:C13:1,2019-06-07T16:35:00,26.0630,-83.0730,29.14,11111222 
COMPS,ioos:station:USF.COMPS:C13:1,2019-06-07T17:35:00,26.0630,-83.0730,29.36,11111222 
COMPS,ioos:station:USF.COMPS:C13:1,2019-06-07T18:35:00,26.0630,-83.0730,29.26,11111222 
COMPS,ioos:station:USF.COMPS:C13:1,2019-06-07T19:35:00,26.0630,-83.0730,29.3,11111222 
COMPS,ioos:station:USF.COMPS:C13:1,2019-06-07T20:35:00,26.0630,-83.0730,29.25,11111222 
COMPS,ioos:station:USF.COMPS:C13:1,2019-06-07T21:35:00,26.0630,-83.0730,29.29,11111222 
COMPS,ioos:station:USF.COMPS:C13:1,2019-06-07T22:35:00,26.0630,-83.0730,29.42,11111222 
COMPS,ioos:station:USF.COMPS:C13:1,2019-06-07T23:35:00,26.0630,-83.0730,29.23,11111222 
COMPS,ioos:station:USF.COMPS:C13:1,2019-06-08T00:35:00,26.0630,-83.0730,29.16,11111222 
COMPS,ioos:station:USF.COMPS:C13:1,2019-06-08T01:35:00,26.0630,-83.0730,29.15,11111222 
COMPS,ioos:station:USF.COMPS:C13:1,2019-06-08T02:35:00,26.0630,-83.0730,29.31,11111222 
COMPS,ioos:station:USF.COMPS:C13:1,2019-06-08T03:35:00,26.0630,-83.0730,29.18,11111222 
COMPS,ioos:station:USF.COMPS:C13:1,2019-06-08T04:35:00,26.0630,-83.0730,29.03,11111222 
COMPS,ioos:station:USF.COMPS:C13:1,2019-06-08T05:35:00,26.0630,-83.0730,28.99,11111222 
COMPS,ioos:station:USF.COMPS:C13:1,2019-06-08T06:35:00,26.0630,-83.0730,28.72,11111222 
COMPS,ioos:station:USF.COMPS:C13:1,2019-06-08T07:35:00,26.0630,-83.0730,28.76,11111222 
COMPS,ioos:station:USF.COMPS:C13:1,2019-06-08T08:35:00,26.0630,-83.0730,28.79,11111222 
COMPS,ioos:station:USF.COMPS:C13:1,2019-06-08T09:35:00,26.0630,-83.0730,28.76,11111222 
COMPS,ioos:station:USF.COMPS:C13:1,2019-06-08T10:35:00,26.0630,-83.0730,28.86,11111222 
COMPS,ioos:station:USF.COMPS:C13:1,2019-06-08T11:35:00,26.0630,-83.0730,28.89,11111222 
COMPS,ioos:station:USF.COMPS:C13:1,2019-06-08T12:35:00,26.0630,-83.0730,28.92,11111222 
COMPS,ioos:station:USF.COMPS:C13:1,2019-06-08T13:35:00,26.0630,-83.0730,29.17,11111222 
COMPS,ioos:station:USF.COMPS:C13:1,2019-06-08T14:35:00,26.0630,-83.0730,29.06,11111222 
COMPS,ioos:station:USF.COMPS:C13:1,2019-06-08T15:35:00,26.0630,-83.0730,29.15,11111222 
COMPS,ioos:station:USF.COMPS:C13:1,2019-06-08T16:35:00,26.0630,-83.0730,29.21,11111222 
COMPS,ioos:station:USF.COMPS:C13:1,2019-06-08T17:35:00,26.0630,-83.0730,29.3,11111222 
COMPS,ioos:station:USF.COMPS:C13:1,2019-06-08T18:35:00,26.0630,-83.0730,29.37,11111222 
COMPS,ioos:station:USF.COMPS:C13:1,2019-06-09T00:35:00,26.0630,-83.0730,29.15,11111222 
COMPS,ioos:station:USF.COMPS:C13:1,2019-06-09T01:35:00,26.0630,-83.0730,29.11,11111222 
COMPS,ioos:station:USF.COMPS:C13:1,2019-06-09T02:35:00,26.0630,-83.0730,29.1,11111222 
COMPS,ioos:station:USF.COMPS:C13:1,2019-06-09T03:35:00,26.0630,-83.0730,29.05,11111222 
COMPS,ioos:station:USF.COMPS:C13:1,2019-06-09T04:35:00,26.0630,-83.0730,29.1,11111222 
COMPS,ioos:station:USF.COMPS:C13:1,2019-06-09T05:35:00,26.0630,-83.0730,28.99,11111222 
COMPS,ioos:station:USF.COMPS:C13:1,2019-06-09T06:35:00,26.0630,-83.0730,28.88,11111222 
COMPS,ioos:station:USF.COMPS:C13:1,2019-06-09T07:35:00,26.0630,-83.0730,28.87,11111222 
COMPS,ioos:station:USF.COMPS:C13:1,2019-06-09T08:35:00,26.0630,-83.0730,29.06,11111222 
COMPS,ioos:station:USF.COMPS:C13:1,2019-06-09T09:35:00,26.0630,-83.0730,28.86,11111222 
COMPS,ioos:station:USF.COMPS:C13:1,2019-06-09T10:35:00,26.0630,-83.0730,28.91,11111222 
COMPS,ioos:station:USF.COMPS:C13:1,2019-06-09T11:35:00,26.0630,-83.0730,28.95,11111222 
COMPS,ioos:station:USF.COMPS:C13:1,2019-06-09T12:35:00,26.0630,-83.0730,29.11,11111222 
COMPS,ioos:station:USF.COMPS:C13:1,2019-06-09T13:35:00,26.0630,-83.0730,29.23,11111222 
COMPS,ioos:station:USF.COMPS:C13:1,2019-06-09T14:35:00,26.0630,-83.0730,29.49,11111222 
COMPS,ioos:station:USF.COMPS:C13:1,2019-06-09T15:35:00,26.0630,-83.0730,29.48,11111222 
COMPS,ioos:station:USF.COMPS:C13:1,2019-06-09T16:35:00,26.0630,-83.0730,29.51,11111222 
COMPS,ioos:station:USF.COMPS:C13:1,2019-06-09T17:35:00,26.0630,-83.0730,29.49,11111222 
COMPS,ioos:station:USF.COMPS:C13:1,2019-06-09T18:35:00,26.0630,-83.0730,29.48,11111222 
COMPS,ioos:station:USF.COMPS:C13:1,2019-06-09T19:35:00,26.0630,-83.0730,29.38,11111222 
COMPS,ioos:station:USF.COMPS:C13:1,2019-06-09T20:35:00,26.0630,-83.0730,29.41,11111222 
COMPS,ioos:station:USF.COMPS:C13:1,2019-06-09T21:35:00,26.0630,-83.0730,29.47,11111222 
COMPS,ioos:station:USF.COMPS:C13:1,2019-06-09T22:35:00,26.0630,-83.0730,29.45,11111222 
COMPS,ioos:station:USF.COMPS:C13:1,2019-06-09T23:35:00,26.0630,-83.0730,29.23,11111222 
COMPS,ioos:station:USF.COMPS:C13:1,2019-06-10T00:35:00,26.0630,-83.0730,29.11,11111222 
COMPS,ioos:station:USF.COMPS:C13:1,2019-06-10T01:35:00,26.0630,-83.0730,29.05,11111222 
COMPS,ioos:station:USF.COMPS:C13:1,2019-06-10T02:35:00,26.0630,-83.0730,29.05,11111222 
COMPS,ioos:station:USF.COMPS:C13:1,2019-06-10T03:35:00,26.0630,-83.0730,29.16,11111222 
COMPS,ioos:station:USF.COMPS:C13:1,2019-06-10T04:35:00,26.0630,-83.0730,29.19,11111222 
COMPS,ioos:station:USF.COMPS:C13:1,2019-06-10T05:35:00,26.0630,-83.0730,25.9,11111222 
COMPS,ioos:station:USF.COMPS:C13:1,2019-06-10T06:35:00,26.0630,-83.0730,23.99,11111222 
COMPS,ioos:station:USF.COMPS:C13:1,2019-06-10T07:35:00,26.0630,-83.0730,25.6,11111222 
COMPS,ioos:station:USF.COMPS:C13:1,2019-06-10T08:35:00,26.0630,-83.0730,26.36,11111222 
COMPS,ioos:station:USF.COMPS:C13:1,2019-06-10T09:35:00,26.0630,-83.0730,26.31,11111222 
COMPS,ioos:station:USF.COMPS:C13:1,2019-06-10T10:35:00,26.0630,-83.0730,25.89,11111222 
COMPS,ioos:station:USF.COMPS:C13:1,2019-06-10T11:35:00,26.0630,-83.0730,26.33,11111222 
COMPS,ioos:station:USF.COMPS:C13:1,2019-06-10T12:35:00,26.0630,-83.0730,26.81,11111222 
COMPS,ioos:station:USF.COMPS:C13:1,2019-06-10T13:35:00,26.0630,-83.0730,27.31,11111222 
COMPS,ioos:station:USF.COMPS:C13:1,2019-06-10T14:35:00,26.0630,-83.0730,27.37,11111222 
COMPS,ioos:station:USF.COMPS:C13:1,2019-06-10T15:35:00,26.0630,-83.0730,27.92,11111222 
COMPS,ioos:station:USF.COMPS:C13:1,2019-06-10T16:35:00,26.0630,-83.0730,28.3,11111222 
COMPS,ioos:station:USF.COMPS:C13:1,2019-06-10T17:35:00,26.0630,-83.0730,28.26,11111222 
COMPS,ioos:station:USF.COMPS:C13:1,2019-06-10T18:35:00,26.0630,-83.0730,28.27,11111222 
COMPS,ioos:station:USF.COMPS:C13:1,2019-06-10T19:35:00,26.0630,-83.0730,28.36,11111222 
COMPS,ioos:station:USF.COMPS:C13:1,2019-06-10T20:35:00,26.0630,-83.0730,28.62,11111222 
COMPS,ioos:station:USF.COMPS:C13:1,2019-06-10T21:35:00,26.0630,-83.0730,28.71,11111222 
COMPS,ioos:station:USF.COMPS:C13:1,2019-06-10T22:35:00,26.0630,-83.0730,28.83,11111222 
COMPS,ioos:station:USF.COMPS:C13:1,2019-06-10T23:35:00,26.0630,-83.0730,28.9,11111222 
COMPS,ioos:station:USF.COMPS:C13:1,2019-06-11T00:35:00,26.0630,-83.0730,28.75,11111222 
COMPS,ioos:station:USF.COMPS:C13:1,2019-06-11T01:35:00,26.0630,-83.0730,28.7,11111222 
COMPS,ioos:station:USF.COMPS:C13:1,2019-06-11T03:35:00,26.0630,-83.0730,28.61,11111222 
COMPS,ioos:station:USF.COMPS:C13:1,2019-06-11T04:35:00,26.0630,-83.0730,28.68,11111222 
COMPS,ioos:station:USF.COMPS:C13:1,2019-06-11T05:35:00,26.0630,-83.0730,28.58,11111222 
COMPS,ioos:station:USF.COMPS:C13:1,2019-06-11T06:35:00,26.0630,-83.0730,28.61,11111222 
COMPS,ioos:station:USF.COMPS:C13:1,2019-06-11T08:35:00,26.0630,-83.0730,28.62,11111222 
COMPS,ioos:station:USF.COMPS:C13:1,2019-06-11T09:35:00,26.0630,-83.0730,28.49,11111222 
COMPS,ioos:station:USF.COMPS:C13:1,2019-06-11T10:35:00,26.0630,-83.0730,28.56,11111222 
COMPS,ioos:station:USF.COMPS:C13:1,2019-06-11T11:35:00,26.0630,-83.0730,28.37,11111222 
COMPS,ioos:station:USF.COMPS:C13:1,2019-06-11T12:35:00,26.0630,-83.0730,28.46,11111222 
COMPS,ioos:station:USF.COMPS:C13:1,2019-06-11T13:35:00,26.0630,-83.0730,28.42,11111222 
COMPS,ioos:station:USF.COMPS:C13:1,2019-06-11T14:35:00,26.0630,-83.0730,28.58,11111222 
COMPS,ioos:station:USF.COMPS:C13:1,2019-06-11T15:35:00,26.0630,-83.0730,28.74,11111222 
COMPS,ioos:station:USF.COMPS:C13:1,2019-06-11T16:35:00,26.0630,-83.0730,28.88,11111222 
COMPS,ioos:station:USF.COMPS:C13:1,2019-06-11T19:35:00,26.0630,-83.0730,29.16,11111222 
COMPS,ioos:station:USF.COMPS:C13:1,2019-06-11T20:35:00,26.0630,-83.0730,29.31,11111222 
COMPS,ioos:station:USF.COMPS:C13:1,2019-06-11T21:35:00,26.0630,-83.0730,29.27,11111222 
COMPS,ioos:station:USF.COMPS:C13:1,2019-06-11T22:35:00,26.0630,-83.0730,28.36,11111222 
COMPS,ioos:station:USF.COMPS:C13:1,2019-06-11T23:35:00,26.0630,-83.0730,28.25,11111222 
COMPS,ioos:station:USF.COMPS:C13:1,2019-06-12T00:35:00,26.0630,-83.0730,28.02,11111222 
COMPS,ioos:station:USF.COMPS:C13:1,2019-06-12T01:35:00,26.0630,-83.0730,28.37,11111222 
COMPS,ioos:station:USF.COMPS:C13:1,2019-06-12T03:35:00,26.0630,-83.0730,28.18,11111222 
COMPS,ioos:station:USF.COMPS:C13:1,2019-06-12T04:35:00,26.0630,-83.0730,28.18,11111222 
COMPS,ioos:station:USF.COMPS:C13:1,2019-06-12T05:35:00,26.0630,-83.0730,28.54,11111222 
COMPS,ioos:station:USF.COMPS:C13:1,2019-06-12T06:35:00,26.0630,-83.0730,28.64,11111222 
COMPS,ioos:station:USF.COMPS:C13:1,2019-06-12T07:35:00,26.0630,-83.0730,28.5,11111222 
COMPS,ioos:station:USF.COMPS:C13:1,2019-06-12T08:35:00,26.0630,-83.0730,28.36,11111222 
COMPS,ioos:station:USF.COMPS:C13:1,2019-06-12T09:35:00,26.0630,-83.0730,28.34,11111222 
COMPS,ioos:station:USF.COMPS:C13:1,2019-06-12T10:35:00,26.0630,-83.0730,28.34,11111222 
COMPS,ioos:station:USF.COMPS:C13:1,2019-06-12T11:35:00,26.0630,-83.0730,28.57,11111222 
COMPS,ioos:station:USF.COMPS:C13:1,2019-06-12T12:35:00,26.0630,-83.0730,28.65,11111222 
COMPS,ioos:station:USF.COMPS:C13:1,2019-06-12T13:35:00,26.0630,-83.0730,28.71,11111222 
COMPS,ioos:station:USF.COMPS:C13:1,2019-06-12T14:35:00,26.0630,-83.0730,28.78,11111222 
COMPS,ioos:station:USF.COMPS:C13:1,2019-06-12T15:35:00,26.0630,-83.0730,28.79,11111222 
COMPS,ioos:station:USF.COMPS:C13:1,2019-06-12T16:35:00,26.0630,-83.0730,28.89,11111222 
COMPS,ioos:station:USF.COMPS:C13:1,2019-06-12T17:35:00,26.0630,-83.0730,29.04,11111222 